Simultaneous Nadir Overpasses (SNOs) Predictions

Prediction of SNOs between METOP-B and TERRA Satellite Orbit:

Table of predicted SNOs for the next 14.0 days since TLE Epoch: 3/5/2017
Index Date (METOP-B) Time (METOP-B) Lat,Lon (METOP-B) SZA (METOP-B ) Date (TERRA) Time (TERRA) Lat,Lon (TERRA) SZA (TERRA ) Distance(km) Time Diff (sec)
1 03/06/2017 04:23:41 -81.31, -18.63 90.66 03/06/2017 04:24:47 -81.32, -18.52 90.61 1.95 66
2 03/06/2017 05:14:21 81.32, 149.15 89.39 03/06/2017 05:14:13 81.32, 149.22 89.39 1.28 8
3 03/08/2017 23:58:02 -81.31, 47.96 91.71 03/08/2017 23:59:02 -81.31, 47.83 91.70 2.06 60
4 03/09/2017 00:48:42 81.32,-144.29 88.33 03/09/2017 00:48:28 81.32,-144.45 88.31 2.72 14
5 03/11/2017 19:32:25 -81.31, 114.14 92.81 03/11/2017 19:33:18 -81.30, 114.10 92.80 1.00 53
6 03/1
